Back to catalog

SL-14 R/B

AlivePO
NORAD 19852·ROCKET BODY·🇷🇺 Russia

Launched Feb 28, 1989 from Plesetsk Cosmodrome

Loading…

Next Passes (next 24 hours)

TLE

FreshSource: Space-Track

Epoch: Sep 14, 2026, 13:16 UTC

1 19852U 89018B   26257.55329929  .00000034  00000-0  17319-4 0  9999
2 19852  82.5200 122.1158 0016516 318.5960  41.3947 13.84174243896407

Track SL-14 R/B in real time with AllMySat

Download on the App Store